Cold Bay, AK

5:45 AM AKST on February 12, 2016 (GMT -0900)
Cold Bay

Weather History for PACD - January, 2013

Change the Weather History Date:

Wednesday, January 9, 2013

  Actual Average Record
Temperature  
Mean Temperature 37 °F 28 °F  
Max Temperature 40 °F 33 °F 42 °F (1988)
Min Temperature 33 °F 24 °F 4 °F (2001)
Degree Days  
Heating Degree Days 28 37  
Month to date heating degree days 296 325  
Since 1 July heating degree days 4725 4402  
Cooling Degree Days 0    
Month to date cooling degree days 0  
Year to date cooling degree days 0  
Moisture  
Dew Point 33 °F    
Average Humidity 0    
Maximum Humidity 0    
Minimum Humidity 0    
Precipitation  
Precipitation 0.61 in 0.11 in 1.66 in (2007)
Month to date precipitation 0.90 0.96  
Year to date precipitation 0.90 0.96  
Snow  
Snow T in 0.40 in 16.00 in (2004)
Month to date snowfall 1.8 4.1  
Since 1 July snowfall 24.2 29.3  
Snow Depth 0.00 in    
Sea Level Pressure  
Sea Level Pressure 29.69 in    
Wind  
Wind Speed 20 mph (SSE)    
Max Wind Speed 41 mph    
Max Gust Speed 49 mph    
Visibility 8 miles    
Events Rain , Snow    
T = Trace of Precipitation, MM = Missing Value Source: NWS Daily Summary

Daily Weather History Graph

Daily Weather History Graph

Search for Another Location

Airport or City:

Trip Planner

Search our weather history database for the weather conditions in past years. The results will help you decide how hot, cold, wet, or windy it might be!

Date:

Astronomy

Jan. 09, 2013 Rise Set
Actual Time 10:12 AM AKST 5:44 PM AKST
Civil Twilight 9:28 AM AKST 6:28 PM AKST
Nautical Twilight 8:41 AM AKST 7:15 PM AKST
Astronomical Twilight 7:57 AM AKST 7:59 PM AKST
Moon 8:05 AM AKST (1/9) 3:57 PM AKST (1/9)
Length of Visible Light 8h 59m
Length of Day
7h 31m
Waning Crescent, 5% of the Moon is Illuminated
Jan 9
Waning Crescent
Jan 11
New
Jan 18
First Quarter
Jan 26
Full
Feb 3
Last Quarter

Hourly Weather History & Observations

Time (AKST) Temp. Windchill Dew Point Humidity Pressure Visibility Wind Dir Wind Speed Gust Speed Precip Events Conditions
12:53 AM 37.0 °F 23.7 °F 33.1 °F 86% 29.79 in 7.0 mi SSE 34.5 mph 41.4 mph 0.00 in Snow Light Snow
1:11 AM 37.4 °F 23.3 °F 33.8 °F 87% 29.80 in 7.0 mi SSE 40.3 mph 49.5 mph 0.00 in Snow Light Snow
1:53 AM 37.0 °F 24.3 °F 34.0 °F 89% 29.82 in 7.0 mi SSE 31.1 mph - 0.02 in Snow Light Snow
2:51 AM 35.6 °F 24.2 °F 33.8 °F 93% 29.81 in 7.0 mi SSE 21.9 mph 28.8 mph 0.03 in Rain Light Rain
2:53 AM 35.6 °F 24.5 °F 33.8 °F 93% 29.80 in 7.0 mi SSE 20.7 mph - N/A Rain Light Rain
3:51 AM 37.4 °F 25.9 °F 33.8 °F 87% 29.77 in 7.0 mi SSE 25.3 mph - 0.06 in Rain Light Rain
3:53 AM 37.0 °F 25.1 °F 34.0 °F 89% 29.77 in 7.0 mi SSE 26.5 mph - 0.06 in Rain Light Rain
4:10 AM 35.6 °F 24.0 °F 33.8 °F 93% 29.76 in 7.0 mi SSE 23.0 mph 33.4 mph 0.01 in Rain Light Rain
4:22 AM 37.4 °F 25.9 °F 33.8 °F 87% 29.74 in 7.0 mi SSE 25.3 mph 33.4 mph 0.02 in Rain Light Rain
4:53 AM 37.0 °F 24.9 °F 34.0 °F 89% 29.73 in 7.0 mi SSE 27.6 mph 35.7 mph 0.04 in Rain Light Rain
5:53 AM 37.0 °F 26.2 °F 35.1 °F 93% 29.69 in 7.0 mi SSE 21.9 mph 31.1 mph 0.07 in Rain Light Rain
6:53 AM 37.0 °F 24.3 °F 35.1 °F 93% 29.62 in 7.0 mi SSE 31.1 mph 39.1 mph 0.09 in Rain Light Rain
7:43 AM 37.4 °F 26.4 °F 35.6 °F 93% 29.59 in 3.0 mi SSE 23.0 mph 31.1 mph 0.09 in Rain , Snow Light Rain
7:53 AM 37.0 °F 25.6 °F 35.1 °F 93% 29.59 in 3.0 mi SSE 24.2 mph 29.9 mph 0.11 in Rain , Snow Light Rain
8:53 AM 37.0 °F 27.4 °F 35.1 °F 93% 29.57 in 2.5 mi SSE 17.3 mph 26.5 mph 0.13 in Rain Light Rain
9:01 AM 37.4 °F 27.2 °F 35.6 °F 93% 29.57 in 4.0 mi SSE 19.6 mph - 0.01 in Rain Light Rain
9:11 AM 37.4 °F 27.2 °F 35.6 °F 93% 29.56 in 5.0 mi SSE 19.6 mph 27.6 mph 0.02 in Rain Light Rain
9:43 AM 37.4 °F 25.9 °F 35.6 °F 93% 29.54 in 4.0 mi SSE 25.3 mph 33.4 mph 0.04 in Rain Light Rain
9:53 AM 37.0 °F 24.9 °F 36.0 °F 96% 29.55 in 5.0 mi SSE 27.6 mph - 0.04 in Rain Light Rain
10:02 AM 37.4 °F 25.2 °F 35.6 °F 93% 29.54 in 5.0 mi SSE 28.8 mph 35.7 mph 0.00 in Rain Light Rain
10:53 AM 37.9 °F 28.5 °F 36.0 °F 93% 29.55 in 10.0 mi SSE 17.3 mph - 0.01 in   Partly Cloudy
11:34 AM 39.2 °F 27.4 °F 33.8 °F 81% 29.58 in 9.0 mi WSW 29.9 mph 39.1 mph 0.00 in Rain Light Rain
11:53 AM 36.0 °F 26.0 °F 33.1 °F 89% 29.61 in 10.0 mi WSW 17.3 mph - 0.00 in Rain Light Rain
12:53 PM 37.0 °F 27.7 °F 32.0 °F 82% 29.65 in 10.0 mi SSW 16.1 mph - 0.00 in   Overcast
1:53 PM 37.0 °F 30.4 °F 33.1 °F 86% 29.66 in 10.0 mi SW 9.2 mph - N/A   Mostly Cloudy
2:22 PM 37.4 °F 33.8 °F 32.0 °F 81% 29.65 in 10.0 mi SW 4.6 mph - N/A   Scattered Clouds
2:53 PM 37.0 °F 31.0 °F 30.9 °F 79% 29.66 in 10.0 mi SW 8.1 mph - N/A   Clear
3:53 PM 37.0 °F 28.5 °F 28.9 °F 73% 29.68 in 10.0 mi SW 13.8 mph - N/A   Mostly Cloudy
4:53 PM 37.0 °F 34.5 °F 28.9 °F 73% 29.69 in 10.0 mi SSE 3.5 mph - N/A   Clear
5:53 PM 34.0 °F 28.8 °F 30.0 °F 85% 29.71 in 10.0 mi ESE 5.8 mph - N/A   Clear
6:53 PM 35.1 °F 30.1 °F 30.0 °F 82% 29.73 in 3.0 mi ESE 5.8 mph - N/A   Haze
7:53 PM 36.0 °F 25.6 °F 30.9 °F 82% 29.73 in 10.0 mi SSE 18.4 mph - N/A   Scattered Clouds
8:53 PM 36.0 °F 23.9 °F 32.0 °F 86% 29.73 in 10.0 mi SSE 25.3 mph 33.4 mph N/A   Partly Cloudy
9:53 PM 35.6 °F 23.4 °F 30.2 °F 81% 29.76 in 10.0 mi SSE 25.3 mph 31.1 mph N/A   Scattered Clouds
10:53 PM 37.0 °F 24.9 °F 33.1 °F 86% 29.77 in 10.0 mi SSE 27.6 mph 35.7 mph N/A   Clear
11:23 PM 37.4 °F 25.4 °F 33.8 °F 87% 29.75 in 9.0 mi SSE 27.6 mph 34.5 mph N/A   Mostly Cloudy
11:33 PM 37.4 °F 26.1 °F 33.8 °F 87% 29.75 in 10.0 mi SSE 24.2 mph 44.9 mph N/A   Scattered Clouds
11:53 PM 37.0 °F 24.1 °F 33.1 °F 86% 29.76 in 10.0 mi SSE 32.2 mph 40.3 mph N/A   Clear